Regional Weather Roundup
Issued by NWS Boston, MA

Home | Current Version | Previous Version | Text Only | Print | Product List | Glossary On
Versions: 1 2 3 4 5 6 7 8 9 10 11 12 13 14 15 16 17 18 19 20 21 22 23 24 25 26 27 28 29 30 31 32 33 34 35 36 37 38 39 40 41 42 43 44 45 46 47 48 49 50
000
ASUS41 KBOX 270110
RWRBOX

REGIONAL WEATHER ROUNDUP
NATIONAL WEATHER SERVICE TAUNTON MA
900 PM EDT THU MAY 26 2016

NOTE:  "FAIR" INDICATES FEW OR NO CLOUDS BELOW 12,000 FEET WITH NO
SIGNIFICANT WEATHER AND/OR OBSTRUCTIONS TO VISIBILITY.  THE FOLLOWING
OBSERVATION LOCATIONS DO NOT REPORT PRESENT WEATHER...PROVINCETOWN...
SMITHFIELD...BLOCK ISLAND...KEENE...AND OXFORD.

MAZALL-270200-
EASTERN MASSACHUSETTS

CITY           SKY/WX    TMP DP  RH WIND       PRES   REMARKS
BOSTON         CLOUDY    61  56  83 E5        30.06R
BEVERLY        PTCLDY    61  53  75 E7        30.07S
LAWRENCE       PTCLDY    65  54  67 E8        30.09R
BEDFORD        MOCLDY    64  56  75 E7        30.05R
BLUE HILL        N/A     72  55  55 SE9       30.06R
NORWOOD        MOCLDY    71  58  63 CALM      30.04R
MARSHFIELD     CLOUDY    64  57  77 SE9G16    30.07R
PLYMOUTH       CLOUDY    68  54  60 SE7       30.07S
TAUNTON        MOCLDY    72  56  57 SE6       30.06R
NEW BEDFORD    CLOUDY    64  56  75 SE5       30.07R
$$

MAZALL-270200-
CAPE COD AND THE ISLANDS

CITY           SKY/WX    TMP DP  RH WIND       PRES   REMARKS
FALMOUTH       NOT AVBL
HYANNIS        CLOUDY    60  54  80 SE7       30.08S
CHATHAM        MOCLDY    58  53  84 SE9       30.12R
PROVINCETOWN   CLOUDY    63  56  78 SE12      30.10R
NANTUCKET      PTCLDY    57  53  86 SE8       30.11R
MARTHAS VNYRD  CLOUDY    60  56  86 S5        30.09S
$$

MAZALL-270200-
CENTRAL AND WESTERN MASSACHUSETTS

CITY           SKY/WX    TMP DP  RH WIND       PRES   REMARKS
WORCESTER      MOCLDY    72  56  57 SW7       30.08R
FITCHBURG      PTCLDY    73  58  59 NE5       30.07R
ORANGE         CLOUDY    73  62  68 CALM      30.05R
SPRINGFIELD    CLEAR     75  57  53 S7        30.02R
WESTFIELD      PTCLDY    76  56  49 S5        30.03R
NORTH ADAMS    CLOUDY    71  60  68 CALM      30.03R
PITTSFIELD     CLOUDY    72  59  63 CALM      30.05S
$$

RIZALL-270200-
RHODE ISLAND

CITY           SKY/WX    TMP DP  RH WIND       PRES   REMARKS
PROVIDENCE     MOCLDY    69  58  67 S5        30.06R
NEWPORT        CLEAR     64  54  69 S6        30.07R
BLOCK ISLAND   CLEAR     62  56  80 SW13      30.09R
SMITHFIELD     CLEAR    N/A N/A N/A S3        30.06R
WESTERLY       PTCLDY    65  52  62 S6        30.08R
$$

CTZALL-270200-
CONNECTICUT

CITY           SKY/WX    TMP DP  RH WIND       PRES   REMARKS
BRADLEY INTL   PTCLDY    78  56  46 S8        30.03R
HARTFORD       CLEAR     80  56  43 S8        30.04R
BRIDGEPORT     PTCLDY    72  55  55 W3        30.05R
DANBURY        CLEAR     75  50  41 S6        30.06R
GROTON         CLEAR     65  57  75 S6        30.06R
NEW HAVEN      MOCLDY    69  55  60 S3        30.05S
CHESTER        NOT AVBL
MERIDEN        PTCLDY    73  57  57 S3        30.05R
WILLIMANTIC    CLEAR     78  56  46 S6        30.06R
OXFORD         PTCLDY    73  52  46 S3        30.07R
$$

MEZ002-015-021-024-NHZ003-005-008-011-012-014-VTZ005-008-270200-
NORTHERN NEW ENGLAND

CITY           SKY/WX    TMP DP  RH WIND       PRES   REMARKS
PORTLAND ME    PTCLDY    60  50  69 CALM      30.11S
BANGOR ME      CLOUDY    66  52  60 SE7       30.13R
CONCORD NH     PTCLDY    64  55  72 E5        30.08R
MANCHESTER NH  MOCLDY    66  54  65 E7        30.06R
NASHUA NH      MOCLDY    71  57  61 SE6       30.07R
PORTSMOUTH NH  MOCLDY    60  50  69 SE13      30.08F
JAFFREY NH     PTCLDY    71  58  63 VRB3      30.08R
KEENE NH       CLEAR     70  61  73 CALM      30.05R
BURLINGTON VT  MOCLDY    74  46  36 CALM      30.01F
MT. WASHINGTON PTCLDY    52  43  71 SW14        N/A
$$

NYZ052-076-270200-
EASTERN NEW YORK

CITY           SKY/WX    TMP DP  RH WIND       PRES   REMARKS
ALBANY         CLOUDY    79  55  43 S3        30.00S
NEW YORK CITY  MOCLDY    77  58  51 S12       30.03S
$$

ANZALL-270200-
MARINE OBSERVATIONS

STATION/POSITION TIME  TEMP    WIND        PRES    VSBY  WAVE
                       AIR SEA DIR/SP/G                  HT/PER
                 (UTC) (F)     (DEG/KT/KT) (MB)    (MI)  (FT/S)
BOSTON BUOY      0050   58 55  110/ 14/ 16 1018.0R         2/ 4
BUZZARDS BAY     0000   61     190/ 11/ 12 1018.6S
NANTUCKET SOUND  0050   57 56  130/  8/ 10 1019.0R         1
MASS BAY-STELLWA 0004   57 55                N/A    1 7/8  3/ 4
ISLE OF SHOALS   0000   58     120/ 14/ 15 1018.7R
S OF BLOCK IS    0025      56                N/A           2/ 8
$$

......................KEY.........................
  SKY/WX - SKY CONDITION/PRESENT WEATHER
  TMP    - TEMPERATURE IN FAHRENHEIT
  DWPT   - DEWPOINT IN FAHRENHEIT
  RH     - RELATIVE HUMIDITY IN PERCENT
  WIND   - DIRECTION AND SPEED IN MPH
  PRES   - MEAN SEA LEVEL PRESSURE IN INCHES OF HG
  WCI    - WIND CHILL INDEX
  VSB    - VISIBILITY IN MILES
  HX     - HEAT INDEX
  TC     - TEMPERATURE IN CELSIUS
  VRB    - VARIABLE WIND DIRECTION
  N/A    - NOT AVAILABLE



USA.gov is the U.S. government's official web portal to all federal, state and local government web resources and services.